owner,sensor,date,latitude,longitude,vertical_datum,wind_speed,wind_to_direction,wind_speed_of_gust,qcFlag 
TABS,ioos:station:wmo:42044:1,2014-09-01T00:00:00Z,26.1914,-97.0507,0.0,4.208681504,115.7739158,5.6,'11111222,11111222,11111222' 
TABS,ioos:station:wmo:42044:1,2014-09-01T00:30:00Z,26.1914,-97.0507,0.0,3.913157293,113.8141888,5.03,'11111222,11111222,11111222' 
TABS,ioos:station:wmo:42044:1,2014-09-01T01:00:00Z,26.1914,-97.0507,0.0,4.837354649,113.3855873,5.81,'11111222,11111222,11111222' 
TABS,ioos:station:wmo:42044:1,2014-09-01T01:30:00Z,26.1914,-97.0507,0.0,4.498588668,131.4857851,5.53,'11111222,11111222,11111222' 
TABS,ioos:station:wmo:42044:1,2014-09-01T02:00:00Z,26.1914,-97.0507,0.0,3.877641035,124.3871035,5.01,'11111222,11111222,11111222' 
TABS,ioos:station:wmo:42044:1,2014-09-01T02:30:00Z,26.1914,-97.0507,0.0,4.05621745,132.3025164,5.04,'11111222,11111222,11111222' 
TABS,ioos:station:wmo:42044:1,2014-09-01T03:00:00Z,26.1914,-97.0507,0.0,5.628641044,135.2882311,6.81,'11111222,11111222,11111222' 
TABS,ioos:station:wmo:42044:1,2014-09-01T03:30:00Z,26.1914,-97.0507,0.0,5.514526272,138.9707665,6.85,'11111222,11111222,11111222' 
TABS,ioos:station:wmo:42044:1,2014-09-01T04:00:00Z,26.1914,-97.0507,0.0,5.330225136,141.4747921,6.93,'11111222,11111222,11111222' 
TABS,ioos:station:wmo:42044:1,2014-09-01T04:30:00Z,26.1914,-97.0507,0.0,5.4384005,143.8257515,6.92,'11111222,11111222,11111222' 
TABS,ioos:station:wmo:42044:1,2014-09-01T05:00:00Z,26.1914,-97.0507,0.0,5.746451079,143.848302,7.03,'11111222,11111222,11111222' 
TABS,ioos:station:wmo:42044:1,2014-09-01T05:30:00Z,26.1914,-97.0507,0.0,5.546250986,144.7628417,7.32,'11111222,11111222,11111222' 
TABS,ioos:station:wmo:42044:1,2014-09-01T06:00:00Z,26.1914,-97.0507,0.0,4.869630376,144.6130695,6.03,'11111222,11111222,11111222' 
TABS,ioos:station:wmo:42044:1,2014-09-01T06:30:00Z,26.1914,-97.0507,0.0,5.493887512,144.6323442,6.91,'11111222,11111222,11111222' 
TABS,ioos:station:wmo:42044:1,2014-09-01T07:00:00Z,26.1914,-97.0507,0.0,5.037509305,145.2691709,6.81,'11111222,11111222,11111222' 
TABS,ioos:station:wmo:42044:1,2014-09-01T07:30:00Z,26.1914,-97.0507,0.0,4.97298703,151.0128176,5.96,'11111222,11111222,11111222' 
TABS,ioos:station:wmo:42044:1,2014-09-01T08:00:00Z,26.1914,-97.0507,0.0,4.342591392,153.9072655,5.52,'11111222,11111222,11111222' 
TABS,ioos:station:wmo:42044:1,2014-09-01T08:30:00Z,26.1914,-97.0507,0.0,4.103522877,159.7547115,5.04,'11111222,11111222,11111222' 
TABS,ioos:station:wmo:42044:1,2014-09-01T09:00:00Z,26.1914,-97.0507,0.0,4.004122875,155.0352424,5.06,'11111222,11111222,11111222' 
TABS,ioos:station:wmo:42044:1,2014-09-01T09:30:00Z,26.1914,-97.0507,0.0,3.593396722,148.0794089,4.51,'11111222,11111222,11111222' 
TABS,ioos:station:wmo:42044:1,2014-09-01T10:00:00Z,26.1914,-97.0507,0.0,3.366214491,142.4835951,4.3,'11111222,11111222,11111222' 
TABS,ioos:station:wmo:42044:1,2014-09-01T10:30:00Z,26.1914,-97.0507,0.0,3.29006079,142.7821015,4.09,'11111222,11111222,11111222' 
TABS,ioos:station:wmo:42044:1,2014-09-01T11:00:00Z,26.1914,-97.0507,0.0,3.806546992,140.3296362,4.97,'11111222,11111222,11111222' 
TABS,ioos:station:wmo:42044:1,2014-09-01T11:30:00Z,26.1914,-97.0507,0.0,3.345220471,133.9102552,4.22,'11111222,11111222,11111222' 
TABS,ioos:station:wmo:42044:1,2014-09-01T12:00:00Z,26.1914,-97.0507,0.0,3.314362684,138.1801384,4.04,'11111222,11111222,11111222' 
TABS,ioos:station:wmo:42044:1,2014-09-01T12:30:00Z,26.1914,-97.0507,0.0,3.131676867,131.3755708,4.1,'11111222,11111222,11111222' 
TABS,ioos:station:wmo:42044:1,2014-09-01T13:00:00Z,26.1914,-97.0507,0.0,2.610785322,130.3397811,3.49,'11111222,11111222,11111222' 
TABS,ioos:station:wmo:42044:1,2014-09-01T13:30:00Z,26.1914,-97.0507,0.0,2.412488342,133.1527097,3.06,'11111222,11111222,11111222' 
TABS,ioos:station:wmo:42044:1,2014-09-01T14:00:00Z,26.1914,-97.0507,0.0,2.329484922,132.0423811,3.11,'11111222,11111222,11111222' 
TABS,ioos:station:wmo:42044:1,2014-09-01T14:30:00Z,26.1914,-97.0507,0.0,2.126240814,126.0078983,2.7,'11111222,11111222,11111222' 
TABS,ioos:station:wmo:42044:1,2014-09-01T15:00:00Z,26.1914,-97.0507,0.0,2.626651861,124.2954098,3.34,'11111222,11111222,11111222' 
TABS,ioos:station:wmo:42044:1,2014-09-01T15:30:00Z,26.1914,-97.0507,0.0,3.02887768,124.3724685,3.85,'11111222,11111222,11111222' 
TABS,ioos:station:wmo:42044:1,2014-09-01T16:00:00Z,26.1914,-97.0507,0.0,2.919263606,129.5797331,3.72,'11111222,11111222,11111222' 
TABS,ioos:station:wmo:42044:1,2014-09-01T16:30:00Z,26.1914,-97.0507,0.0,3.373499667,133.919394,4.22,'11111222,11111222,11111222' 
TABS,ioos:station:wmo:42044:1,2014-09-01T17:00:00Z,26.1914,-97.0507,0.0,3.090711892,133.8204806,4.16,'11111222,11111222,11111222' 
TABS,ioos:station:wmo:42044:1,2014-09-01T17:30:00Z,26.1914,-97.0507,0.0,3.013104711,133.6555944,4.11,'11111222,11111222,11111222' 
TABS,ioos:station:wmo:42044:1,2014-09-01T18:00:00Z,26.1914,-97.0507,0.0,2.935523803,133.4819914,3.74,'11111222,11111222,11111222' 
TABS,ioos:station:wmo:42044:1,2014-09-01T18:30:00Z,26.1914,-97.0507,0.0,3.939746185,131.2956969,4.89,'11111222,11111222,11111222' 
TABS,ioos:station:wmo:42044:1,2014-09-01T19:00:00Z,26.1914,-97.0507,0.0,3.992317623,132.3608957,5.25,'11111222,11111222,11111222' 
TABS,ioos:station:wmo:42044:1,2014-09-01T19:30:00Z,26.1914,-97.0507,0.0,4.264000469,134.5252383,5.37,'11111222,11111222,11111222' 
TABS,ioos:station:wmo:42044:1,2014-09-01T20:00:00Z,26.1914,-97.0507,0.0,4.256994245,134.4292817,5.2,'11111222,11111222,11111222' 
TABS,ioos:station:wmo:42044:1,2014-09-01T20:30:00Z,26.1914,-97.0507,0.0,4.358359783,131.1862498,5.48,'11111222,11111222,11111222' 
TABS,ioos:station:wmo:42044:1,2014-09-01T21:00:00Z,26.1914,-97.0507,0.0,4.511540757,135.5391303,5.73,'11111222,11111222,11111222' 
TABS,ioos:station:wmo:42044:1,2014-09-01T21:30:00Z,26.1914,-97.0507,0.0,4.41291287,134.0821948,5.45,'11111222,11111222,11111222' 
TABS,ioos:station:wmo:42044:1,2014-09-01T22:00:00Z,26.1914,-97.0507,0.0,4.448156922,134.1805611,5.88,'11111222,11111222,11111222' 
TABS,ioos:station:wmo:42044:1,2014-09-01T22:30:00Z,26.1914,-97.0507,0.0,5.105800623,134.2067979,6.59,'11111222,11111222,11111222' 
TABS,ioos:station:wmo:42044:1,2014-09-01T23:00:00Z,26.1914,-97.0507,0.0,4.89522216,133.344833,6.37,'11111222,11111222,11111222' 
TABS,ioos:station:wmo:42044:1,2014-09-01T23:30:00Z,26.1914,-97.0507,0.0,4.893914589,134.0068492,5.94,'11111222,11111222,11111222' 
TABS,ioos:station:wmo:42044:1,2014-09-02T00:00:00Z,26.1914,-97.0507,0.0,4.572231403,127.4466783,6.17,'11111222,11111222,11111222' 
TABS,ioos:station:wmo:42044:1,2014-09-02T00:30:00Z,26.1914,-97.0507,0.0,4.289533774,117.6406973,5.6,'11111222,11111222,11111222' 
TABS,ioos:station:wmo:42044:1,2014-09-02T01:00:00Z,26.1914,-97.0507,0.0,5.058082641,116.9200204,6.47,'11111222,11111222,11111222' 
TABS,ioos:station:wmo:42044:1,2014-09-02T01:30:00Z,26.1914,-97.0507,0.0,4.450404476,121.1186594,5.81,'11111222,11111222,11111222' 
TABS,ioos:station:wmo:42044:1,2014-09-02T02:00:00Z,26.1914,-97.0507,0.0,4.519579626,113.3321252,5.56,'11111222,11111222,11111222' 
TABS,ioos:station:wmo:42044:1,2014-09-02T02:30:00Z,26.1914,-97.0507,0.0,4.621179503,118.0072031,5.79,'11111222,11111222,11111222' 
TABS,ioos:station:wmo:42044:1,2014-09-02T03:00:00Z,26.1914,-97.0507,0.0,6.547801158,119.6584047,8.87,'11111222,11111222,11111222' 
TABS,ioos:station:wmo:42044:1,2014-09-02T03:30:00Z,26.1914,-97.0507,0.0,5.606585414,118.439539,7.1,'11111222,11111222,11111222' 
TABS,ioos:station:wmo:42044:1,2014-09-02T04:00:00Z,26.1914,-97.0507,0.0,5.517544744,131.6942285,7.14,'11111222,11111222,11111222' 
TABS,ioos:station:wmo:42044:1,2014-09-02T04:30:00Z,26.1914,-97.0507,0.0,5.798655016,130.9445759,7.46,'11111222,11111222,11111222' 
TABS,ioos:station:wmo:42044:1,2014-09-02T05:00:00Z,26.1914,-97.0507,0.0,5.787521058,133.039861,7.27,'11111222,11111222,11111222' 
TABS,ioos:station:wmo:42044:1,2014-09-02T05:30:00Z,26.1914,-97.0507,0.0,6.286000318,126.8520027,7.52,'11111222,11111222,11111222' 
TABS,ioos:station:wmo:42044:1,2014-09-02T06:00:00Z,26.1914,-97.0507,0.0,5.497490337,128.2043876,7.21,'11111222,11111222,11111222' 
TABS,ioos:station:wmo:42044:1,2014-09-02T06:30:00Z,26.1914,-97.0507,0.0,6.68923015,135.0003157,8.67,'11111222,11111222,11111222' 
TABS,ioos:station:wmo:42044:1,2014-09-02T07:00:00Z,26.1914,-97.0507,0.0,6.788755409,134.2841574,9.07,'11111222,11111222,11111222' 
TABS,ioos:station:wmo:42044:1,2014-09-02T07:30:00Z,26.1914,-97.0507,0.0,6.799301435,136.9670312,8.51,'11111222,11111222,11111222' 
TABS,ioos:station:wmo:42044:1,2014-09-02T08:00:00Z,26.1914,-97.0507,0.0,6.74247729,138.2467999,8.68,'11111222,11111222,11111222' 
TABS,ioos:station:wmo:42044:1,2014-09-02T08:30:00Z,26.1914,-97.0507,0.0,6.367982412,137.0366364,7.84,'11111222,11111222,11111222' 
TABS,ioos:station:wmo:42044:1,2014-09-02T09:00:00Z,26.1914,-97.0507,0.0,5.770207969,132.1203859,7.51,'11111222,11111222,11111222' 
TABS,ioos:station:wmo:42044:1,2014-09-02T09:30:00Z,26.1914,-97.0507,0.0,6.214217569,127.3496826,8.09,'11111222,11111222,11111222' 
TABS,ioos:station:wmo:42044:1,2014-09-02T10:00:00Z,26.1914,-97.0507,0.0,5.978603516,130.5912259,7.92,'11111222,11111222,11111222' 
TABS,ioos:station:wmo:42044:1,2014-09-02T10:30:00Z,26.1914,-97.0507,0.0,5.518496172,127.6385585,7.28,'11111222,11111222,11111222' 
TABS,ioos:station:wmo:42044:1,2014-09-02T11:00:00Z,26.1914,-97.0507,0.0,6.446471903,127.563506,8.63,'11111222,11111222,11111222' 
TABS,ioos:station:wmo:42044:1,2014-09-02T11:30:00Z,26.1914,-97.0507,0.0,5.654166605,129.5464096,7.86,'11111222,11111222,11111222' 
TABS,ioos:station:wmo:42044:1,2014-09-02T12:00:00Z,26.1914,-97.0507,0.0,6.022175687,127.3078857,9.97,'11111222,11111222,11111222' 
TABS,ioos:station:wmo:42044:1,2014-09-02T12:30:00Z,26.1914,-97.0507,0.0,6.697133715,137.7841691,8.97,'11111222,11111222,11111222' 
TABS,ioos:station:wmo:42044:1,2014-09-02T13:00:00Z,26.1914,-97.0507,0.0,5.268719009,129.7641281,7.03,'11111222,11111222,11111222' 
TABS,ioos:station:wmo:42044:1,2014-09-02T13:30:00Z,26.1914,-97.0507,0.0,4.666219026,122.3961979,6.45,'11111222,11111222,11111222' 
TABS,ioos:station:wmo:42044:1,2014-09-02T14:00:00Z,26.1914,-97.0507,0.0,5.002889165,114.5675348,6.45,'11111222,11111222,11111222' 
TABS,ioos:station:wmo:42044:1,2014-09-02T14:30:00Z,26.1914,-97.0507,0.0,6.130815606,135.4629002,8.63,'11111222,11111222,11111222' 
TABS,ioos:station:wmo:42044:1,2014-09-02T15:00:00Z,26.1914,-97.0507,0.0,7.089943582,125.5286213,8.96,'11111222,11111222,11111222' 
TABS,ioos:station:wmo:42044:1,2014-09-02T15:30:00Z,26.1914,-97.0507,0.0,6.860065597,127.1207948,8.62,'11111222,11111222,11111222' 
TABS,ioos:station:wmo:42044:1,2014-09-02T16:00:00Z,26.1914,-97.0507,0.0,6.31927211,118.7555359,8.15,'11111222,11111222,11111222' 
TABS,ioos:station:wmo:42044:1,2014-09-02T16:30:00Z,26.1914,-97.0507,0.0,5.767026964,112.9641403,7.63,'11111222,11111222,11111222' 
TABS,ioos:station:wmo:42044:1,2014-09-02T17:00:00Z,26.1914,-97.0507,0.0,5.656509524,105.9040391,7.73,'11111222,11111222,11111222' 
TABS,ioos:station:wmo:42044:1,2014-09-02T17:30:00Z,26.1914,-97.0507,0.0,6.759556198,102.4740367,9.52,'11111222,11111222,11111222' 
TABS,ioos:station:wmo:42044:1,2014-09-02T18:00:00Z,26.1914,-97.0507,0.0,5.840616406,116.6531521,7.62,'11111222,11111222,11111222' 
TABS,ioos:station:wmo:42044:1,2014-09-02T18:30:00Z,26.1914,-97.0507,0.0,5.812099449,126.5350586,7.65,'11111222,11111222,11111222' 
TABS,ioos:station:wmo:42044:1,2014-09-02T19:00:00Z,26.1914,-97.0507,0.0,5.676195909,119.0941738,7.86,'11111222,11111222,11111222' 
TABS,ioos:station:wmo:42044:1,2014-09-02T19:30:00Z,26.1914,-97.0507,0.0,8.085499366,131.239579,9.93,'11111222,11111222,11111222' 
TABS,ioos:station:wmo:42044:1,2014-09-02T20:00:00Z,26.1914,-97.0507,0.0,7.626198267,131.9707821,10.18,'11111222,11111222,11111222' 
TABS,ioos:station:wmo:42044:1,2014-09-02T20:30:00Z,26.1914,-97.0507,0.0,8.236601241,137.1650998,10.89,'11111222,11111222,11111222' 
TABS,ioos:station:wmo:42044:1,2014-09-02T21:00:00Z,26.1914,-97.0507,0.0,8.008495489,133.1788066,11.48,'11111222,11111222,11111222' 
TABS,ioos:station:wmo:42044:1,2014-09-02T21:30:00Z,26.1914,-97.0507,0.0,8.183703318,130.6395899,11.12,'11111222,11111222,11111222' 
TABS,ioos:station:wmo:42044:1,2014-09-02T22:00:00Z,26.1914,-97.0507,0.0,7.977769112,128.076883,10.38,'11111222,11111222,11111222' 
TABS,ioos:station:wmo:42044:1,2014-09-02T22:30:00Z,26.1914,-97.0507,0.0,7.079505632,125.6885457,9.64,'11111222,11111222,11111222' 
TABS,ioos:station:wmo:42044:1,2014-09-02T23:00:00Z,26.1914,-97.0507,0.0,7.393402464,125.7542246,9.96,'11111222,11111222,11111222' 
TABS,ioos:station:wmo:42044:1,2014-09-02T23:30:00Z,26.1914,-97.0507,0.0,7.189248918,131.6735734,11.28,'11111222,11111222,11111222' 
TABS,ioos:station:wmo:42044:1,2014-09-03T00:00:00Z,26.1914,-97.0507,0.0,7.863593326,132.4749616,10.53,'11111222,11111222,11111222' 
TABS,ioos:station:wmo:42044:1,2014-09-03T00:30:00Z,26.1914,-97.0507,0.0,7.994129096,137.9917867,10.58,'11111222,11111222,11111222' 
TABS,ioos:station:wmo:42044:1,2014-09-03T01:00:00Z,26.1914,-97.0507,0.0,6.753969203,129.653835,8.72,'11111222,11111222,11111222' 
TABS,ioos:station:wmo:42044:1,2014-09-03T01:30:00Z,26.1914,-97.0507,0.0,6.607208185,106.3507732,8.86,'11111222,11111222,11111222' 
TABS,ioos:station:wmo:42044:1,2014-09-03T02:00:00Z,26.1914,-97.0507,0.0,5.973851354,105.7349894,8.62,'11111222,11111222,11111222' 
TABS,ioos:station:wmo:42044:1,2014-09-03T02:30:00Z,26.1914,-97.0507,0.0,6.052313607,112.5401298,8.55,'11111222,11111222,11111222' 
TABS,ioos:station:wmo:42044:1,2014-09-03T03:00:00Z,26.1914,-97.0507,0.0,9.760174179,144.3397811,12.94,'11111222,11111222,11111222' 
TABS,ioos:station:wmo:42044:1,2014-09-03T03:30:00Z,26.1914,-97.0507,0.0,8.382946976,127.7314478,11.51,'11111222,11111222,11111222' 
TABS,ioos:station:wmo:42044:1,2014-09-03T04:00:00Z,26.1914,-97.0507,0.0,7.705491548,116.5986634,10.28,'11111222,11111222,11111222' 
TABS,ioos:station:wmo:42044:1,2014-09-03T04:30:00Z,26.1914,-97.0507,0.0,7.463846193,120.5164919,9.52,'11111222,11111222,11111222' 
TABS,ioos:station:wmo:42044:1,2014-09-03T05:00:00Z,26.1914,-97.0507,0.0,5.759253424,120.349881,7.6,'11111222,11111222,11111222' 
TABS,ioos:station:wmo:42044:1,2014-09-03T05:30:00Z,26.1914,-97.0507,0.0,4.662713802,113.3764424,6.75,'11111222,11111222,11111222' 
TABS,ioos:station:wmo:42044:1,2014-09-03T06:00:00Z,26.1914,-97.0507,0.0,5.714236607,108.4670342,7.71,'11111222,11111222,11111222' 
TABS,ioos:station:wmo:42044:1,2014-09-03T06:30:00Z,26.1914,-97.0507,0.0,6.412152525,100.2413062,8.75,'11111222,11111222,11111222' 
TABS,ioos:station:wmo:42044:1,2014-09-03T07:00:00Z,26.1914,-97.0507,0.0,13.59412373,147.0700664,17.31,'11111222,11111222,11111222' 
TABS,ioos:station:wmo:42044:1,2014-09-03T07:30:00Z,26.1914,-97.0507,0.0,8.90638535,148.4517846,11.74,'11111222,11111222,11111222' 
TABS,ioos:station:wmo:42044:1,2014-09-03T08:00:00Z,26.1914,-97.0507,0.0,7.98409043,126.5975347,10.39,'11111222,11111222,11111222' 
TABS,ioos:station:wmo:42044:1,2014-09-03T08:30:00Z,26.1914,-97.0507,0.0,6.912264463,121.8739346,8.73,'11111222,11111222,11111222' 
TABS,ioos:station:wmo:42044:1,2014-09-03T09:00:00Z,26.1914,-97.0507,0.0,6.158254623,126.349208,8.67,'11111222,11111222,11111222' 
TABS,ioos:station:wmo:42044:1,2014-09-03T09:30:00Z,26.1914,-97.0507,0.0,5.847777356,112.3112224,7.55,'11111222,11111222,11111222' 
TABS,ioos:station:wmo:42044:1,2014-09-03T10:00:00Z,26.1914,-97.0507,0.0,6.159391204,135.7238732,8.28,'11111222,11111222,11111222' 
TABS,ioos:station:wmo:42044:1,2014-09-03T10:30:00Z,26.1914,-97.0507,0.0,4.514598543,129.9683932,6.06,'11111222,11111222,11111222' 
TABS,ioos:station:wmo:42044:1,2014-09-03T11:00:00Z,26.1914,-97.0507,0.0,5.130155943,120.0638464,7.33,'11111222,11111222,11111222' 
TABS,ioos:station:wmo:42044:1,2014-09-03T11:30:00Z,26.1914,-97.0507,0.0,6.542721146,118.6807034,8.94,'11111222,11111222,11111222' 
TABS,ioos:station:wmo:42044:1,2014-09-03T12:00:00Z,26.1914,-97.0507,0.0,6.278638387,125.2091607,8.45,'11111222,11111222,11111222' 
TABS,ioos:station:wmo:42044:1,2014-09-03T12:30:00Z,26.1914,-97.0507,0.0,6.892154961,123.7595794,9.17,'11111222,11111222,11111222' 
TABS,ioos:station:wmo:42044:1,2014-09-03T13:00:00Z,26.1914,-97.0507,0.0,7.955941176,116.6620299,10.93,'11111222,11111222,11111222' 
TABS,ioos:station:wmo:42044:1,2014-09-03T13:30:00Z,26.1914,-97.0507,0.0,7.661709992,119.476241,10.06,'11111222,11111222,11111222' 
TABS,ioos:station:wmo:42044:1,2014-09-03T14:00:00Z,26.1914,-97.0507,0.0,8.36282249,120.3061036,11.16,'11111222,11111222,11111222' 
TABS,ioos:station:wmo:42044:1,2014-09-03T14:30:00Z,26.1914,-97.0507,0.0,7.799416645,116.6639689,10.12,'11111222,11111222,11111222' 
TABS,ioos:station:wmo:42044:1,2014-09-03T15:00:00Z,26.1914,-97.0507,0.0,7.967992219,119.7184757,10.25,'11111222,11111222,11111222' 
TABS,ioos:station:wmo:42044:1,2014-09-03T15:30:00Z,26.1914,-97.0507,0.0,7.620400252,121.750694,9.48,'11111222,11111222,11111222' 
TABS,ioos:station:wmo:42044:1,2014-09-03T16:00:00Z,26.1914,-97.0507,0.0,6.843420198,148.2611439,11.07,'11111222,11111222,11111222' 
TABS,ioos:station:wmo:42044:1,2014-09-03T16:30:00Z,26.1914,-97.0507,0.0,7.549304604,189.7619624,9.94,'11111222,11111222,11111222' 
TABS,ioos:station:wmo:42044:1,2014-09-03T17:00:00Z,26.1914,-97.0507,0.0,6.694542553,198.4621807,8.94,'11111222,11111222,11111222' 
TABS,ioos:station:wmo:42044:1,2014-09-03T17:30:00Z,26.1914,-97.0507,0.0,4.498722041,183.568592,6.78,'11111222,11111222,11111222' 
TABS,ioos:station:wmo:42044:1,2014-09-03T18:00:00Z,26.1914,-97.0507,0.0,2.253197728,176.9473351,3.41,'11111222,11111222,11111222' 
TABS,ioos:station:wmo:42044:1,2014-09-03T18:30:00Z,26.1914,-97.0507,0.0,0.795550124,194.560452,1.78,'11111222,11111222,11111222' 
TABS,ioos:station:wmo:42044:1,2014-09-03T19:00:00Z,26.1914,-97.0507,0.0,1.09658561,46.84729026,2.69,'11111222,11111222,11111222' 
TABS,ioos:station:wmo:42044:1,2014-09-03T19:30:00Z,26.1914,-97.0507,0.0,3.303407332,50.52721154,4.46,'11111222,11111222,11111222' 
TABS,ioos:station:wmo:42044:1,2014-09-03T20:00:00Z,26.1914,-97.0507,0.0,2.881058833,79.19670093,4.0,'11111222,11111222,11111222' 
TABS,ioos:station:wmo:42044:1,2014-09-03T20:30:00Z,26.1914,-97.0507,0.0,3.232738777,72.90992073,4.55,'11111222,11111222,11111222' 
TABS,ioos:station:wmo:42044:1,2014-09-03T21:00:00Z,26.1914,-97.0507,0.0,3.693886842,85.02984998,5.58,'11111222,11111222,11111222' 
TABS,ioos:station:wmo:42044:1,2014-09-03T21:30:00Z,26.1914,-97.0507,0.0,5.486574523,108.6004433,7.12,'11111222,11111222,11111222' 
TABS,ioos:station:wmo:42044:1,2014-09-03T22:00:00Z,26.1914,-97.0507,0.0,5.28851586,114.8209042,6.94,'11111222,11111222,11111222' 
TABS,ioos:station:wmo:42044:1,2014-09-03T22:30:00Z,26.1914,-97.0507,0.0,5.277849941,108.3323388,6.61,'11111222,11111222,11111222' 
TABS,ioos:station:wmo:42044:1,2014-09-03T23:00:00Z,26.1914,-97.0507,0.0,4.479698651,104.3468378,5.91,'11111222,11111222,11111222' 
TABS,ioos:station:wmo:42044:1,2014-09-03T23:30:00Z,26.1914,-97.0507,0.0,3.881906748,116.9614565,5.12,'11111222,11111222,11111222' 
TABS,ioos:station:wmo:42044:1,2014-09-04T00:00:00Z,26.1914,-97.0507,0.0,4.278656331,108.816445,5.5,'11111222,11111222,11111222' 
TABS,ioos:station:wmo:42044:1,2014-09-04T00:30:00Z,26.1914,-97.0507,0.0,3.924601891,98.64666728,5.03,'11111222,11111222,11111222' 
TABS,ioos:station:wmo:42044:1,2014-09-04T01:00:00Z,26.1914,-97.0507,0.0,3.238054972,103.3928874,4.57,'11111222,11111222,11111222' 
TABS,ioos:station:wmo:42044:1,2014-09-04T01:30:00Z,26.1914,-97.0507,0.0,3.510014245,105.0264371,5.06,'11111222,11111222,11111222' 
TABS,ioos:station:wmo:42044:1,2014-09-04T02:00:00Z,26.1914,-97.0507,0.0,4.668929213,116.7300522,6.32,'11111222,11111222,11111222' 
TABS,ioos:station:wmo:42044:1,2014-09-04T02:30:00Z,26.1914,-97.0507,0.0,4.271416627,128.3459062,5.52,'11111222,11111222,11111222' 
TABS,ioos:station:wmo:42044:1,2014-09-04T03:00:00Z,26.1914,-97.0507,0.0,4.409591818,129.7559898,5.94,'11111222,11111222,11111222' 
TABS,ioos:station:wmo:42044:1,2014-09-04T03:30:00Z,26.1914,-97.0507,0.0,4.492215489,126.3090285,5.97,'11111222,11111222,11111222' 
TABS,ioos:station:wmo:42044:1,2014-09-04T04:00:00Z,26.1914,-97.0507,0.0,4.155021059,117.3671266,5.55,'11111222,11111222,11111222' 
TABS,ioos:station:wmo:42044:1,2014-09-04T04:30:00Z,26.1914,-97.0507,0.0,4.00312378,115.6052377,5.47,'11111222,11111222,11111222' 
TABS,ioos:station:wmo:42044:1,2014-09-04T05:00:00Z,26.1914,-97.0507,0.0,3.908477965,119.254295,5.01,'11111222,11111222,11111222' 
TABS,ioos:station:wmo:42044:1,2014-09-04T05:30:00Z,26.1914,-97.0507,0.0,3.842408099,127.7052997,5.37,'11111222,11111222,11111222' 
TABS,ioos:station:wmo:42044:1,2014-09-04T06:00:00Z,26.1914,-97.0507,0.0,4.96179403,123.658383,6.5,'11111222,11111222,11111222' 
TABS,ioos:station:wmo:42044:1,2014-09-04T06:30:00Z,26.1914,-97.0507,0.0,4.55,120.510587,6.12,'11111222,11111222,11111222' 
TABS,ioos:station:wmo:42044:1,2014-09-04T07:00:00Z,26.1914,-97.0507,0.0,4.607656671,117.955808,5.75,'11111222,11111222,11111222' 
TABS,ioos:station:wmo:42044:1,2014-09-04T07:30:00Z,26.1914,-97.0507,0.0,4.518074811,123.4442052,5.85,'11111222,11111222,11111222' 
TABS,ioos:station:wmo:42044:1,2014-09-04T08:00:00Z,26.1914,-97.0507,0.0,4.484161014,126.3846877,6.26,'11111222,11111222,11111222' 
TABS,ioos:station:wmo:42044:1,2014-09-04T08:30:00Z,26.1914,-97.0507,0.0,5.118534947,127.6985994,6.89,'11111222,11111222,11111222' 
TABS,ioos:station:wmo:42044:1,2014-09-04T09:00:00Z,26.1914,-97.0507,0.0,5.746694702,123.718062,7.57,'11111222,11111222,11111222' 
TABS,ioos:station:wmo:42044:1,2014-09-04T09:30:00Z,26.1914,-97.0507,0.0,5.883374882,130.1051553,8.29,'11111222,11111222,11111222' 
TABS,ioos:station:wmo:42044:1,2014-09-04T10:00:00Z,26.1914,-97.0507,0.0,6.211094912,129.9712539,7.97,'11111222,11111222,11111222' 
TABS,ioos:station:wmo:42044:1,2014-09-04T10:30:00Z,26.1914,-97.0507,0.0,6.036232269,129.0159157,8.04,'11111222,11111222,11111222' 
TABS,ioos:station:wmo:42044:1,2014-09-04T11:00:00Z,26.1914,-97.0507,0.0,6.012270786,130.8186877,7.7,'11111222,11111222,11111222' 
TABS,ioos:station:wmo:42044:1,2014-09-04T11:30:00Z,26.1914,-97.0507,0.0,5.355231087,128.8606476,7.19,'11111222,11111222,11111222' 
TABS,ioos:station:wmo:42044:1,2014-09-04T12:00:00Z,26.1914,-97.0507,0.0,8.129557184,123.1039855,13.15,'11111222,11111222,11111222' 
TABS,ioos:station:wmo:42044:1,2014-09-04T12:30:00Z,26.1914,-97.0507,0.0,7.452013151,121.5574795,10.88,'11111222,11111222,11111222' 
TABS,ioos:station:wmo:42044:1,2014-09-04T13:00:00Z,26.1914,-97.0507,0.0,5.222575993,123.9946853,7.16,'11111222,11111222,11111222' 
TABS,ioos:station:wmo:42044:1,2014-09-04T13:30:00Z,26.1914,-97.0507,0.0,7.32989768,116.3207077,11.56,'11111222,11111222,11111222' 
TABS,ioos:station:wmo:42044:1,2014-09-04T14:00:00Z,26.1914,-97.0507,0.0,7.107657842,144.9686485,10.5,'11111222,11111222,11111222' 
TABS,ioos:station:wmo:42044:1,2014-09-04T14:30:00Z,26.1914,-97.0507,0.0,4.96702124,138.6733131,6.46,'11111222,11111222,11111222' 
TABS,ioos:station:wmo:42044:1,2014-09-04T15:00:00Z,26.1914,-97.0507,0.0,4.749757889,139.0980773,6.0,'11111222,11111222,11111222' 
TABS,ioos:station:wmo:42044:1,2014-09-04T15:30:00Z,26.1914,-97.0507,0.0,6.12,180.0002105,10.28,'11111222,11111222,11111222' 
TABS,ioos:station:wmo:42044:1,2014-09-04T16:00:00Z,26.1914,-97.0507,0.0,3.364817974,148.8613108,4.95,'11111222,11111222,11111222' 
TABS,ioos:station:wmo:42044:1,2014-09-04T16:30:00Z,26.1914,-97.0507,0.0,3.641771547,151.8167333,4.73,'11111222,11111222,11111222' 
TABS,ioos:station:wmo:42044:1,2014-09-04T17:00:00Z,26.1914,-97.0507,0.0,3.126179777,159.59437,4.16,'11111222,11111222,11111222' 
TABS,ioos:station:wmo:42044:1,2014-09-04T17:30:00Z,26.1914,-97.0507,0.0,2.679346935,154.5828938,3.81,'11111222,11111222,11111222' 
TABS,ioos:station:wmo:42044:1,2014-09-04T18:00:00Z,26.1914,-97.0507,0.0,3.823205461,141.6915645,4.71,'11111222,11111222,11111222' 
TABS,ioos:station:wmo:42044:1,2014-09-04T18:30:00Z,26.1914,-97.0507,0.0,4.264317061,142.4317063,5.4,'11111222,11111222,11111222' 